Hourly Weather Chanderi

Today, 22 June, Tuesday

Time Temperature Precipitation Wind Pressure Humidity
00:00 +33°C° 0 mm 5 mps 714 mmHg 53%
01:00 +33°C° 0 mm 5 mps 714 mmHg 56%
02:00 +32°C° 0 mm 5 mps 714 mmHg 59%
03:00 +32°C° 0 mm 5 mps 714 mmHg 61%
04:00 +30°C° 0 mm 5 mps 714 mmHg 63%
05:00 +30°C° 0 mm 4 mps 714 mmHg 64%
06:00 +33°C° 0 mm 4 mps 714 mmHg 59%
07:00 +34°C° 0 mm 4 mps 715 mmHg 54%
08:00 +35°C° 0 mm 3 mps 715 mmHg 50%
09:00 +36°C° 0 mm 3 mps 715 mmHg 44%
10:00 +37°C° 0 mm 2 mps 715 mmHg 39%
11:00 +39°C° 0 mm 2 mps 715 mmHg 33%
12:00 +39°C° 0 mm 2 mps 715 mmHg 32%
13:00 +40°C° 0 mm 2 mps 714 mmHg 30%
14:00 +40°C° 0 mm 3 mps 714 mmHg 29%
15:00 +39°C° 0.1 mm 3 mps 713 mmHg 31%
16:00 +38°C° 0.1 mm 3 mps 713 mmHg 33%
17:00 +37°C° 0 mm 3 mps 713 mmHg 37%
18:00 +37°C° 0 mm 2 mps 713 mmHg 36%
19:00 +37°C° 0 mm 2 mps 713 mmHg 35%
20:00 +36°C° 0 mm 1 mps 714 mmHg 35%
21:00 +37°C° 0 mm 2 mps 714 mmHg 38%
22:00 +36°C° 0 mm 4 mps 714 mmHg 42%
23:00 +35°C° 0 mm 5 mps 714 mmHg 46%

Tomorrow, 23 June, Wednesday

Time Temperature Precipitation Wind Pressure Humidity
00:00 +34°C° 0 mm 5 mps 714 mmHg 48%
01:00 +34°C° 0 mm 5 mps 714 mmHg 51%
02:00 +33°C° 0 mm 5 mps 714 mmHg 53%
03:00 +33°C° 0 mm 5 mps 714 mmHg 55%
04:00 +32°C° 0 mm 5 mps 714 mmHg 57%
05:00 +32°C° 0 mm 5 mps 714 mmHg 59%
06:00 +33°C° 0 mm 5 mps 714 mmHg 54%
07:00 +35°C° 0 mm 5 mps 715 mmHg 49%
08:00 +36°C° 0 mm 5 mps 715 mmHg 43%
09:00 +38°C° 0 mm 4 mps 715 mmHg 37%
10:00 +40°C° 0 mm 3 mps 715 mmHg 32%
11:00 +42°C° 0 mm 3 mps 715 mmHg 26%
12:00 +43°C° 0 mm 3 mps 715 mmHg 24%
13:00 +44°C° 0 mm 3 mps 714 mmHg 22%
14:00 +44°C° 0 mm 3 mps 713 mmHg 19%
15:00 +44°C° 0 mm 3 mps 713 mmHg 20%
16:00 +43°C° 0 mm 4 mps 712 mmHg 21%
17:00 +42°C° 0 mm 4 mps 712 mmHg 22%
18:00 +42°C° 0 mm 4 mps 712 mmHg 24%
19:00 +40°C° 0 mm 3 mps 713 mmHg 25%
20:00 +40°C° 0 mm 2 mps 713 mmHg 26%
21:00 +40°C° 0 mm 4 mps 713 mmHg 31%
22:00 +38°C° 0 mm 6 mps 714 mmHg 36%
23:00 +36°C° 0 mm 7 mps 714 mmHg 42%

Day after tomorrow, 24 June, Thursday

Time Temperature Precipitation Wind Pressure Humidity
00:00 +35°C° 0 mm 7 mps 714 mmHg 46%
01:00 +34°C° 0 mm 7 mps 714 mmHg 50%
02:00 +33°C° 0 mm 6 mps 713 mmHg 55%
03:00 +33°C° 0 mm 7 mps 714 mmHg 55%
04:00 +32°C° 0 mm 7 mps 714 mmHg 56%
05:00 +32°C° 0 mm 7 mps 714 mmHg 56%
06:00 +33°C° 0 mm 7 mps 714 mmHg 53%
07:00 +34°C° 0 mm 7 mps 714 mmHg 50%
08:00 +35°C° 0 mm 8 mps 715 mmHg 47%
09:00 +38°C° 0 mm 7 mps 715 mmHg 42%
10:00 +40°C° 0 mm 7 mps 715 mmHg 36%
11:00 +41°C° 0 mm 7 mps 715 mmHg 31%
12:00 +42°C° 0 mm 6 mps 714 mmHg 29%
13:00 +43°C° 0 mm 5 mps 714 mmHg 27%
14:00 +43°C° 0 mm 5 mps 713 mmHg 25%
15:00 +41°C° 0.2 mm 6 mps 713 mmHg 31%
16:00 +39°C° 0.2 mm 7 mps 713 mmHg 37%
17:00 +35°C° 0.2 mm 7 mps 712 mmHg 43%
18:00 +34°C° 0.1 mm 9 mps 713 mmHg 50%
19:00 +33°C° 0.1 mm 10 mps 713 mmHg 57%
20:00 +31°C° 0.1 mm 11 mps 714 mmHg 64%
21:00 +31°C° 0 mm 11 mps 714 mmHg 63%
22:00 +31°C° 0 mm 10 mps 714 mmHg 61%
23:00 +31°C° 0 mm 10 mps 714 mmHg 60%

25 June, Friday

Time Temperature Precipitation Wind Pressure Humidity
00:00 +31°C° 0 mm 10 mps 713 mmHg 61%
01:00 +31°C° 0 mm 10 mps 713 mmHg 61%
02:00 +31°C° 0 mm 10 mps 713 mmHg 62%
03:00 +31°C° 0.1 mm 8 mps 713 mmHg 60%
04:00 +30°C° 0.1 mm 6 mps 713 mmHg 59%
05:00 +30°C° 0.1 mm 4 mps 713 mmHg 57%
06:00 +30°C° 0.1 mm 5 mps 714 mmHg 56%
07:00 +32°C° 0.1 mm 6 mps 714 mmHg 54%
08:00 +33°C° 0.1 mm 7 mps 715 mmHg 53%
09:00 +34°C° 0 mm 7 mps 715 mmHg 49%
10:00 +35°C° 0 mm 7 mps 715 mmHg 46%
11:00 +36°C° 0 mm 7 mps 715 mmHg 42%
12:00 +38°C° 0 mm 8 mps 714 mmHg 41%
13:00 +38°C° 0 mm 8 mps 714 mmHg 39%
14:00 +39°C° 0 mm 8 mps 714 mmHg 38%
15:00 +39°C° 0 mm 7 mps 713 mmHg 38%
16:00 +39°C° 0 mm 7 mps 713 mmHg 37%
17:00 +39°C° 0 mm 6 mps 713 mmHg 37%
18:00 +38°C° 0 mm 6 mps 713 mmHg 38%
19:00 +36°C° 0 mm 6 mps 713 mmHg 39%
20:00 +36°C° 0 mm 6 mps 713 mmHg 41%
21:00 +35°C° 0 mm 6 mps 713 mmHg 42%
22:00 +35°C° 0 mm 6 mps 713 mmHg 44%
23:00 +34°C° 0 mm 6 mps 713 mmHg 46%

26 June, Saturday

Time Temperature Precipitation Wind Pressure Humidity
00:00 +34°C° 0 mm 6 mps 713 mmHg 45%
01:00 +34°C° 0 mm 7 mps 713 mmHg 45%
02:00 +33°C° 0 mm 7 mps 713 mmHg 45%
03:00 +33°C° 0 mm 7 mps 713 mmHg 46%
04:00 +33°C° 0 mm 7 mps 713 mmHg 46%
05:00 +32°C° 0 mm 6 mps 713 mmHg 47%
06:00 +33°C° 0 mm 6 mps 714 mmHg 45%
07:00 +34°C° 0 mm 7 mps 714 mmHg 42%
08:00 +35°C° 0 mm 7 mps 715 mmHg 40%
09:00 +38°C° 0 mm 6 mps 715 mmHg 37%
10:00 +39°C° 0 mm 6 mps 715 mmHg 34%
11:00 +41°C° 0 mm 6 mps 715 mmHg 31%
12:00 +41°C° 0 mm 5 mps 715 mmHg 30%
13:00 +42°C° 0 mm 5 mps 714 mmHg 29%
14:00 +43°C° 0 mm 5 mps 713 mmHg 27%
15:00 +42°C° 0.1 mm 4 mps 713 mmHg 28%
16:00 +42°C° 0.1 mm 4 mps 713 mmHg 29%
17:00 +41°C° 0.1 mm 4 mps 713 mmHg 30%
18:00 +40°C° 0.1 mm 4 mps 713 mmHg 32%
19:00 +38°C° 0.1 mm 4 mps 713 mmHg 35%
20:00 +37°C° 0.1 mm 5 mps 713 mmHg 37%
21:00 +37°C° 0 mm 5 mps 714 mmHg 40%
22:00 +36°C° 0 mm 5 mps 714 mmHg 42%
23:00 +35°C° 0 mm 5 mps 714 mmHg 45%

27 June, Sunday

Time Temperature Precipitation Wind Pressure Humidity
00:00 +35°C° 0.1 mm 6 mps 714 mmHg 45%
01:00 +34°C° 0.1 mm 6 mps 714 mmHg 44%
02:00 +34°C° 0.1 mm 6 mps 714 mmHg 44%
03:00 +34°C° 0 mm 6 mps 714 mmHg 45%
04:00 +34°C° 0 mm 6 mps 714 mmHg 45%
05:00 +33°C° 0 mm 6 mps 714 mmHg 46%
06:00 +34°C° 0 mm 7 mps 715 mmHg 43%
07:00 +35°C° 0 mm 7 mps 715 mmHg 40%
08:00 +36°C° 0 mm 7 mps 716 mmHg 37%
09:00 +39°C° 0 mm 7 mps 716 mmHg 34%
10:00 +40°C° 0 mm 6 mps 716 mmHg 31%
11:00 +42°C° 0 mm 6 mps 716 mmHg 28%
12:00 +43°C° 0 mm 5 mps 715 mmHg 26%
13:00 +43°C° 0 mm 5 mps 714 mmHg 25%
14:00 +44°C° 0 mm 4 mps 714 mmHg 23%
15:00 +43°C° 0.1 mm 4 mps 714 mmHg 24%
16:00 +43°C° 0.1 mm 5 mps 713 mmHg 25%
17:00 +42°C° 0.1 mm 5 mps 713 mmHg 26%
18:00 +41°C° 0 mm 5 mps 713 mmHg 31%
19:00 +39°C° 0 mm 5 mps 714 mmHg 35%
20:00 +37°C° 0 mm 5 mps 714 mmHg 39%
21:00 +38°C° 0 mm 6 mps 714 mmHg 40%
22:00 +36°C° 0 mm 6 mps 714 mmHg 41%
23:00 +36°C° 0 mm 7 mps 714 mmHg 42%
Show more

We Need Your Consent

Meteoprog and our Service Providers may store and access personal data such as cookies, device identifiers or other similar technologies on your device and process such data to personalise content and ads, as well as provide social media features and to analyse the traffic.

  • Store and/or access information on your device

    Cookies, device identifiers or other information can be stored or accessed on your device for the purposes indicated above.

  • Personalised ads and content, ad and content measurement, audience insights, and products development

    Ads and content can be personalised based on a profile. More data can be added to better personalise ads and content. Ad and content performance can be measured. Insights about the audience who saw the ads and content can be derived. Such data can be used to develop or improve user’s experience, systems and software.

By clicking ‘I Agree’ you will allow the use of indicated cookies, device identifiers, web beacons or other similar technologies. Your settings can be changed in the browser on your device.

For certain purposes, legitimate interests may be relied on, rather than consent. You can read more about this in our Privacy and Cookie Policy.